Find Starlink 38313

NORAD ID: 100555 Int'l Des: 2026-200 Owner: SPXS Country: US Constellation: starlink operational

現在のビュー

3D地球を読み込み中...

About Starlink 38313

Starlink 38313 (NORAD 100555) is a starlink constellation satellite launched Sep 2, 2026 by SPXS of US. with a mass of 575.00 kg.

次回通過

Passes for default location (London). Set your location on the main map for personalized predictions.

高度履歴

Loading altitude history...

軌道要素

1 A0555U 26200X 26254.49898628 .00350339 00000-0 16322-2 0 9997
2 A0555 69.9985 160.9967 0003102 255.0448 105.0411 15.82246651 1468
Epoch: Sep 11, 2026 • Age: 11 hours

現在のステータス

高度 330.8 km
遠地点 / 近地点 N/A
速度 7.71 km/s
衛星直下点 42.59°N, 153.66°W
打ち上げ日 Sep 2, 2026
運用期間 9 days
タイプ internet

技術仕様

分類 Payload
質量 575.00 kg
乾燥質量 530.00 kg
総質量 575.00 kg
長さ 0.30 m
直径 4.10 m
スパン 29.00 m
形状 Box + pan
製造者 SPXS
バスタイプ Starlink V2MO
フェーズステータス In Orbit
所有者/国 SPXS/US

Most Searched